030528 H41  0.3+  0.1-    030706 704 (2.6+  1.0-)   040214 213  0.4-  0.4+  

030528 H41  0.0   0.4+    030706 704 (3.0+  1.1-)   040215 349  0.1-  0.2+  

030528 367  0.2+  0.1-    030706 704 (2.8+  0.9-)   040215 349  0.4-  0.4-  

030528 367  0.3+  0.3-    030706 704 (3.0+  0.9-)   040215 360  0.4+  0.8-  

030528 900  0.1-  0.5-    030706 H41  1.0-  0.4+    040215 360  0.4+  0.7-  

030528 355  0.3+  0.6-    030706 H41  0.7-  0.4+    040215 349  0.5-  0.3-  

030528 900  0.0   0.8-    030707 H41  1.1-  0.4+    040215 349  0.4-  0.2-  

030528 355  0.5+  0.9-    030707 H41  0.7-  0.2-    040216 834  0.3+  1.0-  

030528 355  0.7+  0.8-    030707 360  1.9-  0.7+    040216 H41  0.8-  1.7-  

030528 349  0.3-  0.1-    030707 360  1.9-  0.7+    040216 H41 (2.2-  1.3+) 

030528 349  0.5-  0.4-    030707 118  0.6-  0.1+    040216 H41  0.4-  0.4+  

030528 349  0.2-  0.1-    030707 118  0.7-  0.2+    040216 379  0.8-  0.3+  

030528 349  0.0   0.1+    030707 118  0.7-  0.4+    040216 379  1.2-  0.2+  

030528 322  0.4+  0.6-    030707 118  0.7-  0.2+    040216 379  1.3-  0.1+  

030528 379  0.2+  0.4-    030707 A46  0.0   0.2-    040217 834  0.9-  0.4+  

030528 379  0.1-  0.4-    030707 A46  0.7-  0.2+    040217 834  0.6+  0.9-  

030528 379  0.5-  0.4+    030707 A46  0.1-  0.0     040217 379  0.2-  0.6-  

030528 379  0.8+  0.2-    030707 A46  0.6-  0.3+    040217 379  0.4+  0.0   

030528 322  0.3+  0.5-    030707 A46  0.4-  0.2+    040218 A32  0.7-  1.7+  

030528 322  0.4+  0.3-    030707 A46  0.1+  0.5+    040218 A32  1.1-  0.4+  

030528 300  0.6-  0.1+    030707 048  1.5-  0.8+    040218 379  1.2+  0.1+  

030528 300  0.0   0.4-    030707 048  1.0-  0.6+    040218 379  1.3+  0.2-  

030528 300  0.2+  0.0     030707 048  0.7-  0.2+    040218 379  0.5+  0.5+  

030528 300  0.7-  1.2-    030707 048  0.1-  0.3+    040218 349  0.4-  0.4-  

030528 A18  0.7-  0.8-    030707 048  0.3+  0.5-    040218 349  0.6-  0.4-  

030529 A32  0.4+  0.6+    030708 785  1.7-  1.1+    040218 349  0.5-  0.5-  

030529 A32  0.3+  0.2+    030708 785  0.1-  0.7+    040218 349  0.5-  0.5-  

030529 A32  0.1+  0.2-    030708 118  0.3-  0.5+    040219 834  0.5+  0.6-  

030529 A32  0.1+  0.2-    030708 118  0.8-  0.3+    040219 834  0.3+  0.7-  

030529 A18  0.4+  1.0-    030708 118  0.6-  0.2+    040219 H72  1.2-  0.3+  

030529 750  0.6-  0.9+    030709 H41  1.1-  0.3+    040219 H72  1.0-  0.2+  

030529 750  0.3-  0.4+    030709 H41  1.0-  0.2+    040219 H72  0.8-  0.4+  

030529 750  0.2-  0.5+    030710 J97 (2.1+  2.1-)   040219 H72  0.8-  0.8+  

030529 750  0.0   0.3+    030710 170  0.5-  0.1-    040219 H72  1.0-  0.6+  

030529 H41  0.1-  0.3+    030710 170  0.5-  0.4-    040219 H72  0.9-  0.5+  

030529 355  0.1+  0.6-    030710 170  0.6-  0.5-    040220 D82  1.4-  0.0   

030529 355  0.1+  0.8-    030710 J97  1.0+  0.7-    040220 D82 (1.8-  2.0+) 

030529 355  0.3+  0.7-    030710 J97  0.3+  0.5+    040220 D86 (2.3-  2.1+) 

030529 355  0.3+  0.5-    030710 A46  0.9-  0.3+    040220 D86  0.7-  0.7+  

030529 213  0.7-  0.2-    030710 A46  0.3-  0.4-    040220 D86  1.2-  0.7+  

030529 213  0.1-  0.6-    030710 A46  0.6-  0.6-    040220 D82  1.5-  0.6+  

030529 213  0.4+  1.5-    030710 A46  0.6-  1.3-    040220 D83  0.3-  0.2-  

030529 A46  1.0-  0.2+    030710 A46  0.8-  0.7-    040220 D83  0.4+  0.5-  

030529 A46  0.1+  0.1-    030710 A46  0.9-  0.4-    040220 D83  0.4+  0.7-  

030529 A46  0.4-  0.1-    030710 A32  0.0   0.0     040221 A33  0.2-  0.1-  

030529 A46  0.2-  0.1-    030710 A32  0.5+  0.6-    040221 A33  0.2-  1.3-  

030529 A46  0.5-  0.6-    030710 A32  0.3-  0.2-    040222 834  1.5+  1.2-  

030529 A46  0.3+  0.2-    030710 939  1.0+  0.1-    040222 834  0.5+  1.0-  

030529 A46  0.0   0.1-    030710 939  0.0   0.2+    040223 834  0.5+  1.4-  

030529 A46  0.6+  0.4-    030710 A32  0.2-  0.2-    040223 834  0.9+  1.0-  

030529 A46  0.4-  0.4-    030710 939  1.0-  0.3+    040226 834  0.9+  1.3-  

030529 A46  0.3-  0.5-    030710 A32  0.7-  0.1+    040226 834  0.4+  1.5-  

030529 A46  0.2+  0.4-    030711 H41  0.6-  0.1+    040227 H41  0.4-  0.1+  

030529 A46  0.3-  0.4-    030711 H41  1.2-  0.3+    040227 H41 (2.0-  0.8+) 

030529 A46  0.4-  0.0     030711 176  0.6-  1.0+    040227 D70  0.3-  0.7-  

030529 A46  0.8-  0.3-    030711 176  0.5-  0.9+    040227 D70  0.2-  0.6-  

030529 A46  0.0   0.0     030711 176  0.3-  0.8+    040227 D70  0.3-  0.5-  

030530 A32  0.4+  0.6+    030711 176  0.1-  0.7+    040227 D70  0.3-  0.7-  

030530 A32  0.1+  0.3+    030711 213  0.9+  0.1+    040228 834  0.6+  1.5-  

030530 A32  0.1-  0.2+    030711 939  0.1+  0.5-    040228 834  1.2+  1.3-  

030530 H72  0.9+  0.3-    030711 213  0.6+  0.2+    040229 213  0.5-  0.7+  

030530 H72  0.4+  0.0     030711 213  0.0   0.4+    040229 213  0.2-  0.2-  

030530 H72  0.7+  0.1+    030711 939  0.1-  0.1-    040229 213  0.1-  0.7-  

030530 H41  0.3-  0.0     030711 939  1.1-  0.4+    040301 834  0.1+  1.6-  

030530 H72  0.4+  0.3+    030711 118  0.6-  0.5+    040301 834  0.8-  1.6-  

030530 H72  0.6+  0.2-    030711 118  0.4-  0.4+    040307 H41  0.4+  0.3-  

030530 H41  0.2+  0.1+    030711 118  1.0-  0.7+    040307 H41  0.4+  0.4-  

030530 H72  0.7+  0.3+    030711 118  0.6-  0.7+    040307 H41  0.2+  0.0   

030530 A46  0.2+  0.2-    030714 H41  1.8-  0.9+    040307 H41  0.6+  0.7-  

030530 A46  0.1+  0.3-    030714 H41  1.5-  0.8+    040312 D86  0.7+  0.7-  

030530 A46  0.0   0.5-    030714 A46  0.9+  0.8-    040312 D86  0.2+  0.6-  

030530 A46  0.5+  0.1+    030714 A46  0.4+  1.0-    040312 D86  1.0+  1.0-  

030530 A46  0.3+  0.1-    030714 A46  0.5-  0.9-    040313 900  0.3+  0.4-  

030530 A46  0.0   0.4-    030714 A46  0.5+  1.4-    040313 900  0.3-  0.0   

030530 A46  0.1-  0.3-    030714 A46  0.2-  0.7-    040315 360  0.4+  1.7-  

030530 A46  1.0+  0.6-    030714 A46  0.2+  1.2-    040315 360  0.3+  1.6-  

030530 A46  0.3-  0.0     030714 185  0.5+  0.6-    040315 213  0.4+  1.1-  

030530 A46  0.1-  0.1+    030714 A32  0.1+  0.3-    040315 213  0.6+  0.9-  

030530 A46  0.4+  0.2-    030714 A32  0.2+  0.2-    040315 213  0.0   0.4-  

030530 A46  0.4+  0.3-    030714 185  0.2-  0.0     040320 360  0.0   1.7-  

030530 A46  0.0   0.1-    030714 A32  0.3+  0.2-    040320 360  0.1-  1.5-  

030530 A46  0.2+  0.5-    030714 A32  0.2+  0.4-                            



NAKANO

         **** Don't distribute anyone except personal use only ****

                (C) Copyright 2004 OAA/ComputingSection

write mail from CFAD0::NAKANO on 2004-03-22 02:43:15(JST).

 



    C/2003 H1 (LINEAR)                                                    

Epoch 2004 Feb. 5.0 TT = JDT 2453040.5  

T 2004 Feb. 22.61909 TT                                 Nakano

q   2.2396232            (2000.0)            P               Q

z  +0.0003112      Peri.  196.13810     -0.97621130     +0.02797200

 +/-0.0000027      Node    19.00007     -0.03285539     +0.96110818

e   0.9993030      Incl.  138.66880     -0.21431756     -0.27475196

From 1441 observations 2003 Apr. 24-Dec. 6, mean residual 0".60.

   (1/a)org.= +0.000770, (1/a)fut.= +0.000476 (+/-0.000003), Q= 7.



NAKANO

         **** Don't distribute anyone except personal use only ****

                (C) Copyright 2003 OAA/ComputingSection

write mail from CFAD0::NAKANO on 2003-12-14 18:52:00(JST).

 

◎C/2003 H1の軌道と予報位置です



 上尾の門田健一氏は,明け方に姿を現わしたこの彗星を9月13日の氏の観測

以来,12月3日と6日に捕らえました. CCD全光度は,14.0等とのことです.

前回のEMESの軌道で予報誤差はありません.なお,光度は,HICQ2004の光度予

報に良く合っています.



    C/2003 H1 (LINEAR)                                                    

Epoch 2004 Feb. 5.0 TT = JDT 2453040.5  

T 2004 Feb. 22.61909 TT                                 Nakano

q   2.2396232            (2000.0)            P               Q

z  +0.0003112      Peri.  196.13810     -0.97621130     +0.02797200

 +/-0.0000027      Node    19.00007     -0.03285539     +0.96110818

e   0.9993030      Incl.  138.66880     -0.21431756     -0.27475196

From 1441 observations 2003 Apr. 24-Dec. 6, mean residual 0".60.

   (1/a)org.= +0.000770, (1/a)fut.= +0.000476 (+/-0.000003), Q= 7.

 

Date/        TT  R.A.(2000) Decl.     Delta   r     Daily motion  Mag.  Moon Age

              h    h  m       。  ,                      ,  / PA 。  m1      。

2003 Dec.  5 18  14 49.61  -08 31.4   3.200  2.414    10.2 / 171  13.6  173  .92

           6 18  14 49.72  -08 41.5   3.185  2.410    10.2 / 172  13.6  169  .96

           7 18  14 49.82  -08 51.5   3.170  2.406    10.2 / 172  13.6  158  .99

           8 18  14 49.91  -09 01.6   3.154  2.401    10.2 / 173  13.5  147 1.00

           9 18  14 49.99  -09 11.7   3.138  2.397    10.2 / 174  13.5  135  .99

          10 18  14 50.06  -09 21.8   3.121  2.393    10.2 / 175  13.5  123  .97

          11 18  14 50.12  -09 32.0   3.105  2.389    10.2 / 176  13.5  111  .92

          12 18  14 50.17  -09 42.2   3.088  2.386    10.2 / 177  13.5   99  .86

          13 18  14 50.20  -09 52.4   3.071  2.382    10.2 / 178  13.5   87  .79

          14 18  14 50.23  -10 02.6   3.054  2.378    10.3 / 179  13.4   75  .70

          15 18  14 50.25  -10 12.9   3.036  2.374    10.3 / 180  13.4   62  .60

          16 18  14 50.25  -10 23.2   3.018  2.370    10.3 / 181  13.4   49  .50

          17 18  14 50.24  -10 33.5   3.000  2.367    10.4 / 182  13.4   35  .39

          18 18  14 50.21  -10 43.9   2.982  2.363    10.4 / 183  13.4   22  .28

          19 18  14 50.17  -10 54.3   2.963  2.359    10.5 / 184  13.3    8  .19

          20 18  14 50.12  -11 04.8   2.944  2.356    10.6 / 186  13.3    9  .10

          21 18  14 50.05  -11 15.3   2.925  2.352    10.6 / 187  13.3   23  .04

          22 18  14 49.96  -11 25.9   2.906  2.349    10.7 / 188  13.3   38  .01

          23 18  14 49.86  -11 36.5   2.886  2.346    10.8 / 189  13.3   53  .00

          24 18  14 49.74  -11 47.2   2.866  2.342    10.9 / 191  13.2   68  .03

